Time,TemperatureF,DewpointF,PressureIn,WindDirection,WindDirectionDegrees,WindSpeedMPH,WindSpeedGustMPH,Humidity,HourlyPrecipIn,Conditions,Clouds,dailyrainin,SoftwareType,DateUTC
2013-07-17 00:01:00,69.8,66.7,28.15,WSW,257,0.0,0.0,90,0.00,,---,0.11,VWS V14.01,2013-07-17 05:01:00,
2013-07-17 00:06:00,69.7,66.6,28.15,WSW,257,1.0,1.0,90,0.00,,---,0.00,VWS V14.01,2013-07-17 05:06:00,
2013-07-17 00:11:00,69.6,66.2,28.15,WSW,257,0.0,0.0,89,0.00,,---,0.00,VWS V14.01,2013-07-17 05:11:00,
2013-07-17 00:16:00,69.6,66.2,28.15,WSW,257,0.0,0.0,89,0.00,,---,0.00,VWS V14.01,2013-07-17 05:16:00,
2013-07-17 00:21:00,69.6,66.2,28.15,WSW,257,0.0,0.0,89,0.00,,---,0.00,VWS V14.01,2013-07-17 05:21:00,
2013-07-17 00:27:00,69.8,66.1,28.15,WSW,257,0.0,0.0,88,0.00,,---,0.00,VWS V14.01,2013-07-17 05:27:00,
2013-07-17 00:32:00,69.9,66.2,28.16,WSW,257,0.0,0.0,88,0.00,,---,0.00,VWS V14.01,2013-07-17 05:32:00,
2013-07-17 00:37:00,69.9,65.9,28.16,WSW,257,0.0,0.0,87,0.00,,---,0.00,VWS V14.01,2013-07-17 05:37:00,
2013-07-17 00:42:00,70.0,66.0,28.16,WSW,257,0.0,0.0,87,0.00,,---,0.00,VWS V14.01,2013-07-17 05:42:00,
2013-07-17 00:47:00,70.0,66.0,28.16,WSW,257,0.0,0.0,87,0.00,,---,0.00,VWS V14.01,2013-07-17 05:47:00,
2013-07-17 00:52:00,70.0,66.0,28.16,WSW,257,0.0,0.0,87,0.00,,---,0.00,VWS V14.01,2013-07-17 05:52:00,
2013-07-17 00:57:00,70.1,66.1,28.16,WSW,257,0.0,1.0,87,0.00,,---,0.00,VWS V14.01,2013-07-17 05:57:00,
2013-07-17 01:02:00,70.3,66.2,28.16,WSW,253,3.0,3.0,87,0.00,,---,0.00,VWS V14.01,2013-07-17 06:02:00,
2013-07-17 01:07:00,70.8,66.4,28.16,WSW,253,0.0,1.0,86,0.00,,---,0.00,VWS V14.01,2013-07-17 06:07:00,
2013-07-17 01:13:00,71.1,66.4,28.16,WSW,253,1.0,1.0,85,0.00,,---,0.00,VWS V14.01,2013-07-17 06:13:00,
2013-07-17 01:18:00,71.3,66.6,28.16,WSW,253,0.0,1.0,85,0.00,,---,0.00,VWS V14.01,2013-07-17 06:18:00,
2013-07-17 01:23:00,71.4,66.7,28.16,WSW,253,0.0,1.0,85,0.00,,---,0.00,VWS V14.01,2013-07-17 06:23:00,
2013-07-17 01:29:00,71.5,66.8,28.16,NW,323,0.0,1.0,85,0.00,,---,0.00,VWS V14.01,2013-07-17 06:29:00,
2013-07-17 01:34:00,71.5,66.8,28.17,WNW,297,2.0,6.0,85,0.00,,---,0.00,VWS V14.01,2013-07-17 06:34:00,
2013-07-17 01:39:00,71.7,66.9,28.17,WNW,289,0.0,0.0,85,0.00,,---,0.00,VWS V14.01,2013-07-17 06:39:00,
2013-07-17 01:44:00,71.7,66.9,28.17,WNW,289,0.0,0.0,85,0.00,,---,0.00,VWS V14.01,2013-07-17 06:44:00,
2013-07-17 01:49:00,71.6,66.9,28.17,WNW,289,0.0,1.0,85,0.00,,---,0.00,VWS V14.01,2013-07-17 06:49:00,
2013-07-17 01:55:00,71.6,66.9,28.17,WNW,302,0.0,0.0,85,0.00,,---,0.00,VWS V14.01,2013-07-17 06:55:00,
2013-07-17 02:00:00,71.5,66.8,28.17,WNW,303,0.0,0.0,85,0.00,,---,0.00,VWS V14.01,2013-07-17 07:00:00,
2013-07-17 02:05:00,71.4,66.7,28.18,NW,304,1.0,2.0,85,0.00,,---,0.00,VWS V14.01,2013-07-17 07:05:00,
2013-07-17 02:10:00,71.3,66.6,28.18,WNW,302,1.0,1.0,85,0.00,,---,0.00,VWS V14.01,2013-07-17 07:10:00,
2013-07-17 02:15:00,71.2,66.5,28.18,WNW,302,1.0,1.0,85,0.00,,---,0.00,VWS V14.01,2013-07-17 07:15:00,
2013-07-17 02:21:00,71.0,66.3,28.17,WNW,302,0.0,0.0,85,0.00,,---,0.00,VWS V14.01,2013-07-17 07:21:00,
2013-07-17 02:26:00,70.7,66.0,28.17,WNW,302,0.0,0.0,85,0.00,,---,0.00,VWS V14.01,2013-07-17 07:26:00,
2013-07-17 02:31:00,70.4,65.7,28.17,WNW,302,0.0,0.0,85,0.00,,---,0.00,VWS V14.01,2013-07-17 07:31:00,
2013-07-17 02:36:00,70.1,65.4,28.17,WNW,302,0.0,0.0,85,0.00,,---,0.00,VWS V14.01,2013-07-17 07:36:00,
2013-07-17 02:41:00,69.8,65.1,28.17,WNW,302,0.0,0.0,85,0.00,,---,0.00,VWS V14.01,2013-07-17 07:41:00,
2013-07-17 02:47:00,69.5,65.1,28.17,WNW,302,0.0,0.0,86,0.00,,---,0.00,VWS V14.01,2013-07-17 07:47:00,
2013-07-17 02:52:00,69.2,64.8,28.17,WNW,302,0.0,0.0,86,0.00,,---,0.00,VWS V14.01,2013-07-17 07:52:00,
2013-07-17 02:57:00,68.9,65.2,28.17,WNW,302,0.0,0.0,88,0.00,,---,0.00,VWS V14.01,2013-07-17 07:57:00,
2013-07-17 03:03:00,68.4,64.7,28.18,WNW,302,0.0,0.0,88,0.00,,---,0.00,VWS V14.01,2013-07-17 08:03:00,
2013-07-17 03:08:00,68.0,64.6,28.18,WNW,302,0.0,0.0,89,0.00,,---,0.00,VWS V14.01,2013-07-17 08:08:00,
2013-07-17 03:13:00,67.7,64.3,28.18,WNW,302,0.0,0.0,89,0.00,,---,0.00,VWS V14.01,2013-07-17 08:13:00,
2013-07-17 03:18:00,67.4,64.4,28.18,WNW,302,0.0,0.0,90,0.00,,---,0.00,VWS V14.01,2013-07-17 08:18:00,
2013-07-17 03:24:00,67.1,64.1,28.18,WNW,302,0.0,0.0,90,0.00,,---,0.00,VWS V14.01,2013-07-17 08:24:00,
2013-07-17 03:29:00,66.7,64.0,28.18,WNW,302,0.0,0.0,91,0.00,,---,0.00,VWS V14.01,2013-07-17 08:29:00,
2013-07-17 03:34:00,66.5,64.1,28.18,WNW,302,0.0,0.0,92,0.00,,---,0.00,VWS V14.01,2013-07-17 08:34:00,
2013-07-17 03:39:00,66.1,63.4,28.18,WNW,302,0.0,0.0,91,0.00,,---,0.00,VWS V14.01,2013-07-17 08:39:00,
2013-07-17 03:44:00,65.9,63.5,28.18,WNW,302,0.0,0.0,92,0.00,,---,0.00,VWS V14.01,2013-07-17 08:44:00,
2013-07-17 03:49:00,65.7,63.3,28.18,WNW,302,0.0,0.0,92,0.00,,---,0.00,VWS V14.01,2013-07-17 08:49:00,
2013-07-17 03:55:00,65.5,63.4,28.18,WNW,302,0.0,0.0,93,0.00,,---,0.00,VWS V14.01,2013-07-17 08:55:00,
2013-07-17 04:00:00,65.4,63.6,28.18,WNW,302,0.0,0.0,94,0.00,,---,0.00,VWS V14.01,2013-07-17 09:00:00,
2013-07-17 04:05:00,65.2,63.4,28.18,WNW,302,0.0,0.0,94,0.00,,---,0.00,VWS V14.01,2013-07-17 09:05:00,
2013-07-17 04:10:00,64.9,62.8,28.18,WNW,302,0.0,0.0,93,0.00,,---,0.00,VWS V14.01,2013-07-17 09:10:00,
2013-07-17 04:15:00,64.9,62.2,28.18,WNW,302,0.0,0.0,91,0.00,,---,0.00,VWS V14.01,2013-07-17 09:15:00,
2013-07-17 04:20:00,65.0,62.3,28.18,WNW,302,0.0,0.0,91,0.00,,---,0.00,VWS V14.01,2013-07-17 09:20:00,
2013-07-17 04:25:00,65.0,62.9,28.18,WNW,302,0.0,0.0,93,0.00,,---,0.00,VWS V14.01,2013-07-17 09:25:00,
2013-07-17 04:31:00,64.9,62.8,28.18,WNW,302,0.0,0.0,93,0.00,,---,0.00,VWS V14.01,2013-07-17 09:31:00,
2013-07-17 04:36:00,64.7,62.9,28.18,WNW,302,0.0,0.0,94,0.00,,---,0.00,VWS V14.01,2013-07-17 09:36:00,
2013-07-17 04:41:00,64.5,62.7,28.18,WNW,302,0.0,0.0,94,0.00,,---,0.00,VWS V14.01,2013-07-17 09:41:00,
2013-07-17 04:46:00,64.2,62.4,28.18,WNW,302,0.0,0.0,94,0.00,,---,0.00,VWS V14.01,2013-07-17 09:46:00,
2013-07-17 04:51:00,64.0,62.2,28.18,WNW,302,0.0,0.0,94,0.00,,---,0.00,VWS V14.01,2013-07-17 09:51:00,
2013-07-17 04:57:00,63.7,62.0,28.18,WNW,302,0.0,0.0,94,0.00,,---,0.00,VWS V14.01,2013-07-17 09:57:00,
2013-07-17 05:02:00,63.4,61.7,28.18,WNW,302,0.0,0.0,94,0.00,,---,0.00,VWS V14.01,2013-07-17 10:02:00,
2013-07-17 05:07:00,63.2,61.5,28.18,WNW,302,0.0,0.0,94,0.00,,---,0.00,VWS V14.01,2013-07-17 10:07:00,
2013-07-17 05:12:00,63.1,61.7,28.18,WNW,302,0.0,0.0,95,0.00,,---,0.00,VWS V14.01,2013-07-17 10:12:00,
2013-07-17 05:17:00,63.0,61.5,28.18,WNW,302,0.0,0.0,95,0.00,,---,0.00,VWS V14.01,2013-07-17 10:17:00,
2013-07-17 05:23:00,63.0,61.8,28.18,WNW,302,0.0,0.0,96,0.00,,---,0.00,VWS V14.01,2013-07-17 10:23:00,
2013-07-17 05:27:00,62.9,61.8,28.18,WNW,302,0.0,0.0,96,0.00,,---,0.00,VWS V14.01,2013-07-17 10:27:00,
2013-07-17 05:33:00,62.9,61.8,28.18,WNW,302,0.0,0.0,96,0.00,,---,0.00,VWS V14.01,2013-07-17 10:33:00,
2013-07-17 05:38:00,62.9,61.8,28.18,WNW,302,0.0,0.0,96,0.00,,---,0.00,VWS V14.01,2013-07-17 10:38:00,
2013-07-17 05:43:00,62.8,61.7,28.18,WNW,302,0.0,0.0,96,0.00,,---,0.00,VWS V14.01,2013-07-17 10:43:00,
2013-07-17 05:48:00,62.7,61.5,28.20,WNW,302,0.0,0.0,96,0.00,,---,0.00,VWS V14.01,2013-07-17 10:48:00,
2013-07-17 05:53:00,62.7,61.5,28.20,WNW,302,0.0,0.0,96,0.00,,---,0.00,VWS V14.01,2013-07-17 10:53:00,
2013-07-17 05:59:00,62.8,61.9,28.20,WNW,302,0.0,0.0,97,0.00,,---,0.00,VWS V14.01,2013-07-17 10:59:00,
2013-07-17 06:04:00,62.9,62.0,28.20,WNW,302,0.0,0.0,97,0.00,,---,0.00,VWS V14.01,2013-07-17 11:04:00,
2013-07-17 06:09:00,63.0,62.1,28.20,WNW,302,0.0,0.0,97,0.00,,---,0.00,VWS V14.01,2013-07-17 11:09:00,
2013-07-17 06:14:00,63.3,62.4,28.20,NNW,344,5.0,5.0,97,0.00,,---,0.00,VWS V14.01,2013-07-17 11:14:00,
2013-07-17 06:19:00,64.2,63.3,28.23,NNW,336,3.0,7.0,97,0.00,,---,0.00,VWS V14.01,2013-07-17 11:19:00,
2013-07-17 06:24:00,65.3,64.1,28.23,North,360,0.0,6.0,96,0.00,,---,0.00,VWS V14.01,2013-07-17 11:24:00,
2013-07-17 06:29:00,66.0,64.5,28.23,NNW,340,0.0,3.0,95,0.00,,---,0.00,VWS V14.01,2013-07-17 11:29:00,
2013-07-17 06:35:00,66.3,64.5,28.21,NNW,340,0.0,0.0,94,0.00,,---,0.00,VWS V14.01,2013-07-17 11:35:00,
2013-07-17 06:40:00,66.5,64.4,28.21,NNW,340,0.0,0.0,93,0.00,,---,0.00,VWS V14.01,2013-07-17 11:40:00,
2013-07-17 06:45:00,66.7,64.6,28.21,NNW,340,0.0,0.0,93,0.00,,---,0.00,VWS V14.01,2013-07-17 11:45:00,
2013-07-17 06:50:00,66.7,64.6,28.20,NNW,340,0.0,0.0,93,0.00,,---,0.00,VWS V14.01,2013-07-17 11:50:00,
2013-07-17 06:55:00,66.7,64.6,28.20,NNW,340,0.0,0.0,93,0.00,,---,0.00,VWS V14.01,2013-07-17 11:55:00,
2013-07-17 07:00:00,66.7,64.6,28.20,NNW,340,0.0,0.0,93,0.00,,---,0.00,VWS V14.01,2013-07-17 12:00:00,
2013-07-17 07:05:00,66.8,64.7,28.20,NNW,340,0.0,0.0,93,0.00,,---,0.00,VWS V14.01,2013-07-17 12:05:00,
2013-07-17 07:10:00,67.1,65.3,28.20,NNW,340,0.0,0.0,94,0.00,,---,0.00,VWS V14.01,2013-07-17 12:10:00,
2013-07-17 07:16:00,67.4,65.6,28.20,NNW,340,0.0,0.0,94,0.00,,---,0.00,VWS V14.01,2013-07-17 12:16:00,
2013-07-17 07:21:00,67.6,65.5,28.20,NNW,340,0.0,0.0,93,0.00,,---,0.00,VWS V14.01,2013-07-17 12:21:00,
2013-07-17 07:26:00,67.8,65.4,28.20,NNW,340,0.0,0.0,92,0.00,,---,0.00,VWS V14.01,2013-07-17 12:26:00,
2013-07-17 07:31:00,67.9,65.5,28.20,NNW,340,0.0,0.0,92,0.00,,---,0.00,VWS V14.01,2013-07-17 12:31:00,
2013-07-17 07:36:00,68.0,65.3,28.20,NNW,340,0.0,1.0,91,0.00,,---,0.00,VWS V14.01,2013-07-17 12:36:00,
2013-07-17 07:41:00,68.1,65.4,28.20,NNW,340,0.0,0.0,91,0.00,,---,0.00,VWS V14.01,2013-07-17 12:41:00,
2013-07-17 07:46:00,68.2,65.5,28.20,NNW,340,0.0,0.0,91,0.00,,---,0.00,VWS V14.01,2013-07-17 12:46:00,
2013-07-17 07:51:00,68.3,65.3,28.20,NNW,340,0.0,1.0,90,0.00,,---,0.00,VWS V14.01,2013-07-17 12:51:00,
2013-07-17 07:56:00,68.5,65.5,28.20,NNW,340,0.0,0.0,90,0.00,,---,0.00,VWS V14.01,2013-07-17 12:56:00,
2013-07-17 08:01:00,68.6,65.2,28.21,NNW,340,0.0,1.0,89,0.00,,---,0.00,VWS V14.01,2013-07-17 13:01:00,
2013-07-17 08:07:00,68.8,65.4,28.21,NNW,340,0.0,0.0,89,0.00,,---,0.00,VWS V14.01,2013-07-17 13:07:00,
2013-07-17 08:12:00,69.0,65.6,28.21,NNW,340,1.0,2.0,89,0.00,,---,0.00,VWS V14.01,2013-07-17 13:12:00,
2013-07-17 08:17:00,69.0,65.6,28.20,North,349,0.0,0.0,89,0.00,,---,0.00,VWS V14.01,2013-07-17 13:17:00,
2013-07-17 08:22:00,69.0,65.3,28.20,NNE,20,2.0,2.0,88,0.00,,---,0.00,VWS V14.01,2013-07-17 13:22:00,
2013-07-17 08:27:00,69.0,65.3,28.20,NE,35,0.0,0.0,88,0.00,,---,0.00,VWS V14.01,2013-07-17 13:27:00,
2013-07-17 08:32:00,69.2,65.5,28.20,NE,35,1.0,1.0,88,0.00,,---,0.00,VWS V14.01,2013-07-17 13:32:00,
2013-07-17 08:37:00,69.6,65.9,28.20,NE,40,1.0,2.0,88,0.00,,---,0.00,VWS V14.01,2013-07-17 13:37:00,
2013-07-17 08:42:00,70.2,66.2,28.20,NE,42,0.0,0.0,87,0.00,,---,0.00,VWS V14.01,2013-07-17 13:42:00,
2013-07-17 08:47:00,71.0,66.6,28.20,NE,42,2.0,3.0,86,0.00,,---,0.00,VWS V14.01,2013-07-17 13:47:00,
2013-07-17 08:52:00,71.2,65.8,28.20,NE,44,0.0,2.0,83,0.00,,---,0.00,VWS V14.01,2013-07-17 13:52:00,
2013-07-17 08:58:00,71.4,66.0,28.20,NE,44,0.0,0.0,83,0.00,,---,0.00,VWS V14.01,2013-07-17 13:58:00,
2013-07-17 09:03:00,71.6,65.8,28.21,NE,44,0.0,0.0,82,0.00,,---,0.00,VWS V14.01,2013-07-17 14:03:00,
2013-07-17 09:08:00,72.3,65.8,28.21,NE,44,0.0,0.0,80,0.00,,---,0.00,VWS V14.01,2013-07-17 14:08:00,
2013-07-17 09:13:00,72.8,65.9,28.21,NE,45,0.0,0.0,79,0.00,,---,0.00,VWS V14.01,2013-07-17 14:13:00,
2013-07-17 09:18:00,73.2,67.0,28.21,NE,45,0.0,2.0,81,0.00,,---,0.00,VWS V14.01,2013-07-17 14:18:00,
2013-07-17 09:23:00,74.0,66.7,28.21,NE,45,0.0,0.0,78,0.00,,---,0.00,VWS V14.01,2013-07-17 14:23:00,
2013-07-17 09:28:00,74.8,67.9,28.21,NE,45,0.0,0.0,79,0.00,,---,0.00,VWS V14.01,2013-07-17 14:28:00,
2013-07-17 09:33:00,75.2,67.9,28.21,NE,45,0.0,0.0,78,0.00,,---,0.00,VWS V14.01,2013-07-17 14:33:00,
2013-07-17 09:38:00,75.3,67.6,28.21,NE,45,0.0,0.0,77,0.00,,---,0.00,VWS V14.01,2013-07-17 14:38:00,
2013-07-17 09:43:00,75.2,67.5,28.21,NE,45,0.0,0.0,77,0.00,,---,0.00,VWS V14.01,2013-07-17 14:43:00,
2013-07-17 09:48:00,75.1,66.6,28.21,NE,45,1.0,2.0,75,0.00,,---,0.00,VWS V14.01,2013-07-17 14:48:00,
2013-07-17 09:53:00,75.2,67.5,28.21,NE,45,0.0,1.0,77,0.00,,---,0.00,VWS V14.01,2013-07-17 14:53:00,
2013-07-17 09:59:00,75.6,67.1,28.21,NE,45,0.0,0.0,75,0.00,,---,0.00,VWS V14.01,2013-07-17 14:59:00,
2013-07-17 10:04:00,75.6,67.5,28.20,NE,45,0.0,0.0,76,0.00,,---,0.00,VWS V14.01,2013-07-17 15:04:00,
2013-07-17 10:09:00,75.7,67.6,28.20,NE,45,0.0,1.0,76,0.00,,---,0.00,VWS V14.01,2013-07-17 15:09:00,
2013-07-17 10:14:00,75.7,67.2,28.20,NE,45,0.0,0.0,75,0.00,,---,0.00,VWS V14.01,2013-07-17 15:14:00,
2013-07-17 10:19:00,75.7,66.8,28.20,NE,45,0.0,1.0,74,0.00,,---,0.00,VWS V14.01,2013-07-17 15:19:00,
2013-07-17 10:24:00,75.7,67.2,28.20,NE,45,0.0,0.0,75,0.00,,---,0.00,VWS V14.01,2013-07-17 15:24:00,
2013-07-17 10:29:00,75.8,66.5,28.20,NE,45,2.0,2.0,73,0.00,,---,0.00,VWS V14.01,2013-07-17 15:29:00,
2013-07-17 10:34:00,75.8,66.9,28.20,NE,45,0.0,1.0,74,0.00,,---,0.00,VWS V14.01,2013-07-17 15:34:00,
2013-07-17 10:40:00,76.4,66.7,28.20,NE,45,0.0,0.0,72,0.00,,---,0.00,VWS V14.01,2013-07-17 15:40:00,
2013-07-17 10:45:00,76.5,66.0,28.20,NE,44,2.0,2.0,70,0.00,,---,0.00,VWS V14.01,2013-07-17 15:45:00,
2013-07-17 10:50:00,75.7,65.6,28.21,NE,42,0.0,2.0,71,0.00,,---,0.00,VWS V14.01,2013-07-17 15:50:00,
2013-07-17 10:55:00,74.1,65.7,28.21,WNW,303,0.0,1.0,75,0.00,,---,0.00,VWS V14.01,2013-07-17 15:55:00,
2013-07-17 11:00:00,73.5,66.6,28.21,WNW,303,0.0,1.0,79,0.00,,---,0.00,VWS V14.01,2013-07-17 16:00:00,
2013-07-17 11:05:00,73.5,66.6,28.21,WNW,303,0.0,0.0,79,0.00,,---,0.00,VWS V14.01,2013-07-17 16:05:00,
2013-07-17 11:10:00,73.7,67.2,28.21,WNW,302,1.0,1.0,80,0.00,,---,0.00,VWS V14.01,2013-07-17 16:10:00,
2013-07-17 11:15:00,74.0,67.8,28.21,WNW,302,0.0,1.0,81,0.00,,---,0.00,VWS V14.01,2013-07-17 16:15:00,
2013-07-17 11:20:00,73.4,67.6,28.19,NNW,336,0.0,4.0,82,0.00,,---,0.00,VWS V14.01,2013-07-17 16:20:00,
2013-07-17 11:25:00,72.7,67.6,28.19,NNW,340,1.0,2.0,84,0.00,,---,0.00,VWS V14.01,2013-07-17 16:25:00,
2013-07-17 11:31:00,72.7,67.6,28.19,North,355,0.0,3.0,84,0.00,,---,0.00,VWS V14.01,2013-07-17 16:31:00,
2013-07-17 11:36:00,73.3,68.2,28.20,North,355,0.0,0.0,84,0.00,,---,0.00,VWS V14.01,2013-07-17 16:36:00,
2013-07-17 11:41:00,73.4,67.9,28.20,North,355,0.0,0.0,83,0.00,,---,0.00,VWS V14.01,2013-07-17 16:41:00,
2013-07-17 11:46:00,73.6,68.1,28.20,North,355,1.0,1.0,83,0.00,,---,0.00,VWS V14.01,2013-07-17 16:46:00,
2013-07-17 11:51:00,74.1,68.6,28.20,North,355,0.0,0.0,83,0.00,,---,0.00,VWS V14.01,2013-07-17 16:51:00,
2013-07-17 11:57:00,74.6,68.4,28.20,North,355,2.0,2.0,81,0.00,,---,0.00,VWS V14.01,2013-07-17 16:57:00,
2013-07-17 12:02:00,73.6,67.8,28.21,NNE,20,3.0,4.0,82,0.00,,---,0.00,VWS V14.01,2013-07-17 17:02:00,
2013-07-17 12:07:00,72.1,67.3,28.21,North,360,3.0,4.0,85,0.00,,---,0.00,VWS V14.01,2013-07-17 17:07:00,
2013-07-17 12:12:00,71.5,67.1,28.21,NNW,340,6.0,6.0,86,0.00,,---,0.00,VWS V14.01,2013-07-17 17:12:00,
2013-07-17 12:17:00,71.7,67.6,28.20,North,355,1.0,3.0,87,0.00,,---,0.00,VWS V14.01,2013-07-17 17:17:00,
2013-07-17 12:23:00,72.6,68.5,28.20,North,351,0.0,1.0,87,0.00,,---,0.00,VWS V14.01,2013-07-17 17:23:00,
2013-07-17 12:28:00,72.9,67.8,28.20,North,355,1.0,3.0,84,0.00,,---,0.00,VWS V14.01,2013-07-17 17:28:00,
2013-07-17 12:33:00,72.1,67.0,28.20,North,351,0.0,1.0,84,0.00,,---,0.00,VWS V14.01,2013-07-17 17:33:00,
2013-07-17 12:38:00,72.0,67.6,28.20,North,351,0.0,0.0,86,0.00,,---,0.00,VWS V14.01,2013-07-17 17:38:00,
2013-07-17 12:43:00,72.2,68.8,28.20,North,351,0.0,0.0,89,0.00,,---,0.00,VWS V14.01,2013-07-17 17:43:00,
2013-07-17 12:48:00,72.0,68.3,28.20,North,351,1.0,1.0,88,0.00,,---,0.00,VWS V14.01,2013-07-17 17:48:00,
2013-07-17 12:54:00,71.4,68.0,28.20,North,351,0.0,0.0,89,0.03,,---,0.03,VWS V14.01,2013-07-17 17:54:00,
2013-07-17 13:06:00,69.6,67.2,28.20,North,351,0.0,1.0,92,0.15,,---,0.15,VWS V14.01,2013-07-17 18:06:00,
2013-07-17 13:12:00,69.2,67.1,28.20,North,351,0.0,1.0,93,0.16,,---,0.16,VWS V14.01,2013-07-17 18:12:00,
2013-07-17 13:17:00,68.9,67.1,28.20,North,351,0.0,1.0,94,0.17,,---,0.17,VWS V14.01,2013-07-17 18:17:00,
2013-07-17 13:24:00,68.8,67.3,28.20,North,351,0.0,0.0,95,0.17,,---,0.17,VWS V14.01,2013-07-17 18:24:00,
2013-07-17 13:29:00,68.8,67.3,28.20,North,351,0.0,0.0,95,0.17,,---,0.17,VWS V14.01,2013-07-17 18:29:00,
2013-07-17 13:34:00,68.9,67.7,28.20,North,351,0.0,0.0,96,0.17,,---,0.17,VWS V14.01,2013-07-17 18:34:00,
2013-07-17 13:39:00,69.0,67.8,28.20,North,351,0.0,0.0,96,0.17,,---,0.17,VWS V14.01,2013-07-17 18:39:00,
2013-07-17 13:44:00,69.0,67.8,28.20,North,351,0.0,0.0,96,0.17,,---,0.17,VWS V14.01,2013-07-17 18:44:00,
2013-07-17 13:50:00,69.2,68.0,28.20,North,351,0.0,0.0,96,0.17,,---,0.17,VWS V14.01,2013-07-17 18:50:00,
2013-07-17 13:55:00,69.4,68.2,28.20,North,351,0.0,0.0,96,0.13,,---,0.17,VWS V14.01,2013-07-17 18:55:00,
2013-07-17 14:00:00,69.7,68.5,28.20,North,351,0.0,0.0,96,0.08,,---,0.17,VWS V14.01,2013-07-17 19:00:00,
2013-07-17 14:05:00,69.8,68.6,28.18,North,351,0.0,0.0,96,0.03,,---,0.17,VWS V14.01,2013-07-17 19:05:00,
2013-07-17 14:11:00,69.9,68.7,28.18,North,351,0.0,0.0,96,0.01,,---,0.17,VWS V14.01,2013-07-17 19:11:00,
2013-07-17 14:16:00,69.9,68.4,28.18,North,351,1.0,1.0,95,0.00,,---,0.17,VWS V14.01,2013-07-17 19:16:00,
2013-07-17 14:21:00,69.9,68.1,28.18,North,351,0.0,0.0,94,0.00,,---,0.17,VWS V14.01,2013-07-17 19:21:00,
2013-07-17 14:26:00,70.1,68.6,28.18,North,351,0.0,0.0,95,0.00,,---,0.17,VWS V14.01,2013-07-17 19:26:00,
2013-07-17 14:31:00,70.4,68.9,28.19,North,351,0.0,0.0,95,0.00,,---,0.17,VWS V14.01,2013-07-17 19:31:00,
2013-07-17 14:36:00,70.8,69.0,28.19,North,351,0.0,0.0,94,0.00,,---,0.17,VWS V14.01,2013-07-17 19:36:00,
2013-07-17 14:41:00,70.9,68.8,28.19,North,351,0.0,1.0,93,0.00,,---,0.17,VWS V14.01,2013-07-17 19:41:00,
2013-07-17 14:46:00,71.3,69.2,28.19,North,351,0.0,0.0,93,0.00,,---,0.17,VWS V14.01,2013-07-17 19:46:00,
2013-07-17 14:52:00,71.7,68.9,28.19,North,351,0.0,1.0,91,0.00,,---,0.17,VWS V14.01,2013-07-17 19:52:00,
2013-07-17 14:57:00,71.6,68.5,28.19,North,351,2.0,2.0,90,0.00,,---,0.17,VWS V14.01,2013-07-17 19:57:00,
2013-07-17 15:02:00,71.5,68.4,28.19,North,351,0.0,0.0,90,0.00,,---,0.17,VWS V14.01,2013-07-17 20:02:00,
2013-07-17 15:07:00,71.9,69.1,28.19,North,351,0.0,0.0,91,0.00,,---,0.17,VWS V14.01,2013-07-17 20:07:00,
2013-07-17 15:13:00,72.2,68.4,28.19,North,351,0.0,1.0,88,0.00,,---,0.17,VWS V14.01,2013-07-17 20:13:00,
2013-07-17 15:18:00,72.6,69.5,28.19,North,351,1.0,2.0,90,0.00,,---,0.17,VWS V14.01,2013-07-17 20:18:00,
2013-07-17 15:23:00,72.7,68.9,28.19,North,351,0.0,0.0,88,0.00,,---,0.17,VWS V14.01,2013-07-17 20:23:00,
2013-07-17 15:28:00,73.7,69.9,28.19,North,351,0.0,1.0,88,0.00,,---,0.17,VWS V14.01,2013-07-17 20:28:00,
2013-07-17 15:33:00,74.1,68.6,28.18,North,351,0.0,0.0,83,0.00,,---,0.17,VWS V14.01,2013-07-17 20:33:00,
2013-07-17 15:38:00,74.3,68.8,28.18,North,355,0.0,0.0,83,0.00,,---,0.17,VWS V14.01,2013-07-17 20:38:00,
2013-07-17 15:43:00,74.6,68.8,28.18,North,355,1.0,2.0,82,0.00,,---,0.17,VWS V14.01,2013-07-17 20:43:00,
2013-07-17 15:48:00,75.3,68.7,28.18,NW,317,3.0,3.0,80,0.00,,---,0.17,VWS V14.01,2013-07-17 20:48:00,
2013-07-17 15:54:00,75.3,68.3,28.18,NNW,334,1.0,2.0,79,0.00,,---,0.17,VWS V14.01,2013-07-17 20:54:00,
2013-07-17 15:59:00,76.0,69.4,28.18,NNW,336,2.0,2.0,80,0.00,,---,0.17,VWS V14.01,2013-07-17 20:59:00,
2013-07-17 16:04:00,75.7,68.4,28.17,WNW,294,4.0,6.0,78,0.00,,---,0.17,VWS V14.01,2013-07-17 21:04:00,
2013-07-17 16:09:00,75.4,68.8,28.17,West,273,0.0,3.0,80,0.00,,---,0.17,VWS V14.01,2013-07-17 21:09:00,
2013-07-17 16:14:00,74.6,68.0,28.17,NNW,346,0.0,2.0,80,0.00,,---,0.17,VWS V14.01,2013-07-17 21:14:00,
2013-07-17 16:20:00,74.5,67.9,28.17,NNW,346,0.0,1.0,80,0.00,,---,0.17,VWS V14.01,2013-07-17 21:20:00,
2013-07-17 16:25:00,74.5,68.3,28.17,NNW,344,1.0,1.0,81,0.00,,---,0.17,VWS V14.01,2013-07-17 21:25:00,
2013-07-17 16:30:00,74.4,67.8,28.17,NNW,342,2.0,3.0,80,0.00,,---,0.17,VWS V14.01,2013-07-17 21:30:00,
2013-07-17 16:35:00,74.0,67.1,28.16,NNW,337,1.0,2.0,79,0.00,,---,0.17,VWS V14.01,2013-07-17 21:35:00,
2013-07-17 16:40:00,74.2,67.3,28.16,NW,315,1.0,4.0,79,0.00,,---,0.17,VWS V14.01,2013-07-17 21:40:00,
2013-07-17 16:45:00,74.3,67.7,28.16,NW,315,0.0,1.0,80,0.00,,---,0.17,VWS V14.01,2013-07-17 21:45:00,
2013-07-17 16:51:00,74.6,67.7,28.16,NW,315,0.0,3.0,79,0.00,,---,0.17,VWS V14.01,2013-07-17 21:51:00,
2013-07-17 16:56:00,75.2,67.1,28.16,WNW,294,1.0,3.0,76,0.00,,---,0.17,VWS V14.01,2013-07-17 21:56:00,
2013-07-17 17:01:00,75.6,67.5,28.16,West,272,0.0,2.0,76,0.00,,---,0.17,VWS V14.01,2013-07-17 22:01:00,
2013-07-17 17:06:00,75.9,67.8,28.16,West,272,0.0,0.0,76,0.00,,---,0.17,VWS V14.01,2013-07-17 22:06:00,
2013-07-17 17:11:00,76.0,67.9,28.16,West,267,3.0,4.0,76,0.00,,---,0.17,VWS V14.01,2013-07-17 22:11:00,
2013-07-17 17:17:00,76.0,68.3,28.16,West,269,4.0,4.0,77,0.00,,---,0.17,VWS V14.01,2013-07-17 22:17:00,
2013-07-17 17:22:00,75.9,68.2,28.16,WNW,285,3.0,3.0,77,0.00,,---,0.17,VWS V14.01,2013-07-17 22:22:00,
2013-07-17 17:27:00,76.2,68.5,28.16,WNW,285,1.0,3.0,77,0.00,,---,0.17,VWS V14.01,2013-07-17 22:27:00,
2013-07-17 17:32:00,76.0,67.9,28.16,NW,310,3.0,4.0,76,0.00,,---,0.17,VWS V14.01,2013-07-17 22:32:00,
2013-07-17 17:37:00,75.5,68.2,28.16,WNW,282,1.0,2.0,78,0.00,,---,0.17,VWS V14.01,2013-07-17 22:37:00,
2013-07-17 17:42:00,75.4,67.7,28.16,West,265,2.0,6.0,77,0.00,,---,0.17,VWS V14.01,2013-07-17 22:42:00,
2013-07-17 17:47:00,75.2,67.9,28.15,West,278,2.0,2.0,78,0.00,,---,0.17,VWS V14.01,2013-07-17 22:47:00,
2013-07-17 17:53:00,75.1,68.2,28.15,West,278,0.0,1.0,79,0.00,,---,0.17,VWS V14.01,2013-07-17 22:53:00,
2013-07-17 17:58:00,75.2,67.9,28.15,West,278,1.0,1.0,78,0.00,,---,0.17,VWS V14.01,2013-07-17 22:58:00,
2013-07-17 18:03:00,75.5,69.3,28.15,West,278,0.0,0.0,81,0.00,,---,0.17,VWS V14.01,2013-07-17 23:03:00,
2013-07-17 18:08:00,76.1,68.4,28.15,West,278,1.0,3.0,77,0.00,,---,0.17,VWS V14.01,2013-07-17 23:08:00,
2013-07-17 18:13:00,76.2,68.8,28.15,West,278,0.0,0.0,78,0.00,,---,0.17,VWS V14.01,2013-07-17 23:13:00,
2013-07-17 18:18:00,76.2,68.5,28.15,WNW,290,1.0,1.0,77,0.00,,---,0.17,VWS V14.01,2013-07-17 23:18:00,
2013-07-17 18:23:00,76.4,67.9,28.15,West,275,0.0,4.0,75,0.00,,---,0.17,VWS V14.01,2013-07-17 23:23:00,
2013-07-17 18:29:00,76.3,67.8,28.15,West,279,0.0,3.0,75,0.00,,---,0.17,VWS V14.01,2013-07-17 23:29:00,
2013-07-17 18:34:00,75.8,68.5,28.14,West,279,0.0,0.0,78,0.00,,---,0.17,VWS V14.01,2013-07-17 23:34:00,
2013-07-17 18:39:00,75.7,68.7,28.14,West,279,0.0,1.0,79,0.00,,---,0.17,VWS V14.01,2013-07-17 23:39:00,
2013-07-17 18:44:00,75.5,68.2,28.14,West,279,0.0,2.0,78,0.00,,---,0.17,VWS V14.01,2013-07-17 23:44:00,
2013-07-17 18:49:00,75.3,68.3,28.14,West,279,1.0,3.0,79,0.00,,---,0.17,VWS V14.01,2013-07-17 23:49:00,
2013-07-17 18:55:00,74.8,67.9,28.14,West,281,3.0,3.0,79,0.00,,---,0.17,VWS V14.01,2013-07-17 23:55:00,
2013-07-17 19:00:00,74.4,67.8,28.14,WNW,290,0.0,3.0,80,0.00,,---,0.17,VWS V14.01,2013-07-18 00:00:00,
2013-07-17 19:05:00,73.9,68.1,28.14,WNW,282,0.0,0.0,82,0.00,,---,0.17,VWS V14.01,2013-07-18 00:05:00,
2013-07-17 19:10:00,73.6,67.8,28.14,WNW,282,0.0,0.0,82,0.00,,---,0.17,VWS V14.01,2013-07-18 00:10:00,
2013-07-17 19:15:00,73.5,68.0,28.14,WNW,282,0.0,0.0,83,0.00,,---,0.17,VWS V14.01,2013-07-18 00:15:00,
2013-07-17 19:20:00,73.5,68.0,28.14,WNW,282,0.0,0.0,83,0.00,,---,0.17,VWS V14.01,2013-07-18 00:20:00,
2013-07-17 19:25:00,73.5,68.4,28.14,WNW,282,0.0,0.0,84,0.00,,---,0.17,VWS V14.01,2013-07-18 00:25:00,
2013-07-17 19:30:00,73.4,68.6,28.14,WNW,282,0.0,0.0,85,0.00,,---,0.17,VWS V14.01,2013-07-18 00:30:00,
2013-07-17 19:36:00,73.2,68.1,28.14,WNW,282,0.0,0.0,84,0.00,,---,0.17,VWS V14.01,2013-07-18 00:36:00,
2013-07-17 19:41:00,73.0,68.2,28.14,WNW,282,0.0,0.0,85,0.00,,---,0.17,VWS V14.01,2013-07-18 00:41:00,
2013-07-17 19:46:00,72.8,68.0,28.14,WNW,282,0.0,0.0,85,0.00,,---,0.17,VWS V14.01,2013-07-18 00:46:00,
2013-07-17 19:51:00,72.6,68.2,28.14,WNW,282,0.0,0.0,86,0.00,,---,0.17,VWS V14.01,2013-07-18 00:51:00,
2013-07-17 19:56:00,72.6,68.2,28.14,WNW,282,0.0,0.0,86,0.00,,---,0.17,VWS V14.01,2013-07-18 00:56:00,
2013-07-17 20:01:00,72.5,68.1,28.14,WNW,282,0.0,0.0,86,0.00,,---,0.17,VWS V14.01,2013-07-18 01:01:00,
2013-07-17 20:06:00,72.4,68.0,28.14,WNW,282,0.0,1.0,86,0.00,,---,0.17,VWS V14.01,2013-07-18 01:06:00,
2013-07-17 20:12:00,72.1,68.0,28.14,WNW,282,0.0,0.0,87,0.00,,---,0.17,VWS V14.01,2013-07-18 01:12:00,
2013-07-17 20:17:00,72.0,68.3,28.14,WNW,282,0.0,0.0,88,0.00,,---,0.17,VWS V14.01,2013-07-18 01:17:00,
2013-07-17 20:22:00,71.8,68.4,28.14,WNW,282,0.0,0.0,89,0.00,,---,0.17,VWS V14.01,2013-07-18 01:22:00,
2013-07-17 20:27:00,71.5,68.1,28.14,WNW,282,0.0,0.0,89,0.00,,---,0.17,VWS V14.01,2013-07-18 01:27:00,
2013-07-17 20:32:00,71.3,68.2,28.15,WNW,282,0.0,0.0,90,0.00,,---,0.17,VWS V14.01,2013-07-18 01:32:00,
2013-07-17 20:37:00,71.0,68.2,28.15,WNW,282,0.0,0.0,91,0.00,,---,0.17,VWS V14.01,2013-07-18 01:37:00,
2013-07-17 20:42:00,70.6,67.8,28.15,WNW,282,0.0,0.0,91,0.00,,---,0.17,VWS V14.01,2013-07-18 01:42:00,
2013-07-17 20:47:00,70.3,67.6,28.15,WNW,282,0.0,0.0,91,0.01,,---,0.18,VWS V14.01,2013-07-18 01:47:00,
2013-07-17 20:52:00,70.1,67.7,28.15,WNW,282,0.0,0.0,92,0.01,,---,0.18,VWS V14.01,2013-07-18 01:52:00,
2013-07-17 20:58:00,69.9,67.5,28.15,WNW,282,0.0,0.0,92,0.01,,---,0.18,VWS V14.01,2013-07-18 01:58:00,
2013-07-17 21:03:00,69.7,67.3,28.14,WNW,282,0.0,0.0,92,0.01,,---,0.18,VWS V14.01,2013-07-18 02:03:00,
2013-07-17 21:08:00,69.5,67.4,28.14,WNW,282,0.0,0.0,93,0.01,,---,0.18,VWS V14.01,2013-07-18 02:08:00,
2013-07-17 21:13:00,69.3,67.2,28.14,WNW,282,0.0,0.0,93,0.01,,---,0.18,VWS V14.01,2013-07-18 02:13:00,
2013-07-17 21:19:00,69.1,67.3,28.13,WNW,282,0.0,0.0,94,0.01,,---,0.18,VWS V14.01,2013-07-18 02:19:00,
2013-07-17 21:24:00,68.9,67.1,28.13,WNW,282,0.0,0.0,94,0.01,,---,0.18,VWS V14.01,2013-07-18 02:24:00,
2013-07-17 21:29:00,68.8,67.0,28.13,WNW,282,0.0,0.0,94,0.01,,---,0.18,VWS V14.01,2013-07-18 02:29:00,
2013-07-17 21:34:00,68.8,67.3,28.14,WNW,282,0.0,0.0,95,0.01,,---,0.18,VWS V14.01,2013-07-18 02:34:00,
2013-07-17 21:39:00,68.8,67.3,28.14,WNW,282,0.0,0.0,95,0.01,,---,0.18,VWS V14.01,2013-07-18 02:39:00,
2013-07-17 21:44:00,68.6,67.1,28.14,WNW,282,0.0,0.0,95,0.01,,---,0.18,VWS V14.01,2013-07-18 02:44:00,
2013-07-17 21:49:00,68.3,66.8,28.14,WNW,282,0.0,0.0,95,0.00,,---,0.18,VWS V14.01,2013-07-18 02:49:00,
2013-07-17 21:54:00,68.1,66.6,28.14,WNW,282,0.0,0.0,95,0.00,,---,0.18,VWS V14.01,2013-07-18 02:54:00,
2013-07-17 21:59:00,67.8,66.3,28.14,WNW,282,0.0,0.0,95,0.00,,---,0.18,VWS V14.01,2013-07-18 02:59:00,
2013-07-17 22:05:00,67.6,66.1,28.14,WNW,282,0.0,0.0,95,0.00,,---,0.18,VWS V14.01,2013-07-18 03:05:00,
2013-07-17 22:09:00,67.5,66.3,28.14,WNW,282,0.0,0.0,96,0.00,,---,0.18,VWS V14.01,2013-07-18 03:09:00,
2013-07-17 22:15:00,67.5,66.3,28.14,WNW,282,0.0,0.0,96,0.00,,---,0.18,VWS V14.01,2013-07-18 03:15:00,
2013-07-17 22:20:00,67.4,66.2,28.14,WNW,282,0.0,0.0,96,0.00,,---,0.18,VWS V14.01,2013-07-18 03:20:00,
2013-07-17 22:25:00,67.4,66.2,28.14,WNW,282,0.0,0.0,96,0.00,,---,0.18,VWS V14.01,2013-07-18 03:25:00,
2013-07-17 22:31:00,67.2,66.0,28.14,WNW,282,0.0,0.0,96,0.00,,---,0.18,VWS V14.01,2013-07-18 03:31:00,
2013-07-17 22:36:00,67.1,65.9,28.13,WNW,282,0.0,0.0,96,0.00,,---,0.18,VWS V14.01,2013-07-18 03:36:00,
2013-07-17 22:41:00,67.1,65.9,28.13,WNW,282,0.0,0.0,96,0.00,,---,0.18,VWS V14.01,2013-07-18 03:41:00,
2013-07-17 22:46:00,67.1,65.9,28.13,WNW,282,0.0,0.0,96,0.00,,---,0.18,VWS V14.01,2013-07-18 03:46:00,
2013-07-17 22:51:00,67.0,65.8,28.14,WNW,282,0.0,0.0,96,0.00,,---,0.18,VWS V14.01,2013-07-18 03:51:00,
2013-07-17 22:56:00,67.0,65.8,28.14,WNW,282,0.0,0.0,96,0.00,,---,0.18,VWS V14.01,2013-07-18 03:56:00,
2013-07-17 23:01:00,67.2,66.0,28.13,WNW,282,0.0,0.0,96,0.00,,---,0.18,VWS V14.01,2013-07-18 04:01:00,
2013-07-17 23:04:00,67.3,66.1,28.13,WNW,282,0.0,0.0,96,0.00,,---,0.18,VWS V14.01,2013-07-18 04:04:00,
2013-07-17 23:05:00,67.3,66.1,28.13,WNW,282,0.0,0.0,96,0.00,,---,0.18,VWS V14.01,2013-07-18 04:05:00,
2013-07-17 23:11:00,67.3,66.1,28.13,WNW,282,0.0,0.0,96,0.00,,---,0.18,VWS V14.01,2013-07-18 04:11:00,
2013-07-17 23:16:00,67.3,66.1,28.14,WNW,282,0.0,0.0,96,0.00,,---,0.18,VWS V14.01,2013-07-18 04:16:00,
2013-07-17 23:21:00,67.1,65.9,28.14,WNW,282,0.0,0.0,96,0.00,,---,0.18,VWS V14.01,2013-07-18 04:21:00,
2013-07-17 23:26:00,67.0,65.8,28.14,WNW,282,0.0,0.0,96,0.00,,---,0.18,VWS V14.01,2013-07-18 04:26:00,
2013-07-17 23:31:00,66.9,65.7,28.13,WNW,282,0.0,0.0,96,0.00,,---,0.18,VWS V14.01,2013-07-18 04:31:00,
2013-07-17 23:37:00,66.7,65.5,28.13,WNW,282,0.0,0.0,96,0.00,,---,0.18,VWS V14.01,2013-07-18 04:37:00,
2013-07-17 23:41:00,66.6,65.4,28.13,WNW,282,0.0,0.0,96,0.00,,---,0.18,VWS V14.01,2013-07-18 04:41:00,
2013-07-17 23:47:00,66.5,65.3,28.13,WNW,282,0.0,0.0,96,0.00,,---,0.18,VWS V14.01,2013-07-18 04:47:00,
2013-07-17 23:52:00,66.3,65.1,28.13,WNW,282,0.0,0.0,96,0.00,,---,0.18,VWS V14.01,2013-07-18 04:52:00,
2013-07-17 23:57:00,66.2,65.0,28.13,WNW,282,0.0,0.0,96,0.00,,---,0.18,VWS V14.01,2013-07-18 04:57:00,